#timestamp,LO_Frequency,Hit,StdDev 
1545328815.5,286046998.6,N
1545328835.3,286046998.2,N
1545328855.2,286047000.4,N
1545328875.0,286046999.9,N
1545328875.9,286046999.9,N
1545328895.7,286046999.8,N
1545328915.6,286047000.5,N
1545328935.4,286046998.4,N
1545328955.3,286047000.5,N
1545328975.1,286046998.2,N
1545328976.0,286046998.2,N
1545328995.8,286047000.8,N
1545329015.7,286046999.1,N
1545329035.5,286046998.3,N
1545329055.4,286047000.9,N
1545329075.2,286047000.5,N
1545329095.0,286047001.1,N
1545329095.9,286047001.1,N
1545329115.8,286047002.8,N
1545329135.6,286047000.6,N
1545329155.4,286046999.9,N
1545329175.3,286046998.2,N
1545329195.1,286047000.5,N
1545329215.9,286047000.9,N
1545329235.7,286047000.9,N
1545329255.5,286047000.9,N
1545329275.1,286047000.4,N
1545329295.8,286047000.7,N
1545329315.7,286047000.3,N
1545329335.5,286047000.7,N
1545329355.4,286047000.2,N
1545329375.2,286047000.1,N
1545329395.0,286047002.8,N
1545329395.9,286047002.8,N
1545329415.8,286047002.3,N
1545329435.6,286047001.8,N
1545329455.4,286047004.4,Y
1545329475.3,286047002.1,P
1545329495.1,286047001.5,N
1545329515.9,286047002.3,P
1545329535.7,286047001.7,N
1545329555.5,286047001.3,N
1545329575.4,286047004.1,Y
1545329595.2,286047001.8,P
1545329615.1,286047000.0,N
1545329616.0,286047000.0,N
1545329635.8,286047000.8,N
1545329655.6,286046999.5,N
1545329675.5,286046999.1,N
1545329695.3,286046997.1,Y
1545329715.1,286046999.2,P
1545329735.9,286046996.9,P
1545329755.7,286046999.4,N
1545329775.6,286046998.6,N
1545329795.4,286046998.3,N
1545329815.2,286046998.5,N
1545329835.1,286046998.7,N
1545329836.0,286046998.7,N
1545329855.8,286046998.9,N
1545329875.7,286046999.5,N
1545329895.5,286046998.7,N
1545329915.3,286046997.1,Y
1545329935.2,286046996.9,P
1545329955.0,286046997.8,N
1545329955.9,286046997.8,N
1545329975.7,286046999.2,N
1545329995.6,286046996.9,Y
1545330015.4,286047000.5,P
1545330035.3,286046998.1,N
1545330055.1,286047001.5,N
1545330075.8,286047002.0,N
1545330095.7,286047004.3,N
1545330115.5,286047003.9,N
1545330135.4,286047004.4,N
1545330155.2,286047004.2,N
1545330175.0,286047004.4,N
1545330175.9,286047004.4,N
1545330195.8,286047002.1,N
1545330215.6,286046999.7,N
1545330235.4,286047001.1,N
1545330255.3,286046999.9,N
1545330275.1,286047001.3,N
1545330295.9,286047003.7,N
1545330315.7,286047005.5,N
1545330335.5,286047005.5,N
1545330355.4,286047003.6,N
1545330375.2,286047002.0,N
1545330395.0,286047002.3,N
1545330395.9,286047002.3,N
1545330415.8,286047002.0,N
1545330435.6,286047002.0,N
1545330455.5,286047001.7,N
1545330475.3,286047001.5,N
1545330495.1,286047000.2,N
1545330515.9,286047002.6,N
1545330535.7,286046999.9,N
1545330555.5,286047002.6,N
1545330575.4,286047002.8,N
1545330595.2,286047002.8,N
1545330615.1,286047003.9,N
1545330616.0,286047003.9,N
1545330635.8,286047002.9,N
1545330655.6,286047003.6,N
1545330675.5,286047001.7,N
1545330695.3,286047004.2,N
1545330715.1,286047002.3,N
1545330735.9,286047001.6,N
1545330755.7,286047002.6,N
1545330775.6,286047000.2,N
1545330795.4,286046999.8,N
1545330815.2,286047004.2,N
1545330835.1,286047001.8,N
1545330836.0,286047001.8,N
1545330855.8,286047003.8,N
1545330875.6,286047003.3,N
1545330895.5,286047003.5,N
1545330915.3,286047004.4,Y
1545330935.2,286046998.5,P
1545330955.9,286047001.1,N
1545330975.7,286046998.6,N
1545330995.6,286047000.8,N
1545331015.4,286047001.2,N
1545331035.2,286046998.5,N
1545331055.1,286047000.8,N
1545331056.0,286047000.8,N
1545331075.8,286047000.7,N
1545331095.7,286047000.4,N
1545331115.5,286046999.8,N
1545331135.3,286047000.0,N
1545331155.2,286046999.8,N
1545331175.0,286047000.1,N
1545331175.9,286047000.1,N
1545331195.8,286047000.6,N
1545331215.6,286047002.2,N
1545331235.4,286047002.3,N
1545331255.3,286047000.4,N
1545331275.1,286046999.7,N
1545331295.8,286047000.3,N
1545331315.7,286047002.4,N
1545331335.5,286047000.5,N
1545331355.4,286046998.5,N
1545331375.2,286046999.0,N
1545331395.0,286046996.7,N
1545331395.9,286046996.7,N
1545331415.8,286046998.6,N
1545331435.6,286047001.2,N
1545331455.4,286047001.1,N
1545331475.3,286047000.6,N
1545331495.1,286046998.2,N
1545331515.9,286046998.1,N
1545331535.7,286046999.2,N
1545331555.5,286046998.2,N
1545331575.4,286046998.3,N
1545331595.2,286046998.6,N
1545331615.0,286047000.3,N
1545331615.9,286047000.3,N
1545331635.8,286047000.5,N
1545331655.6,286047002.7,N
1545331675.5,286047002.6,N
1545331695.3,286047001.5,N
1545331715.1,286047002.8,N
1545331735.9,286047002.8,N
1545331755.7,286047000.3,N
1545331775.6,286046999.9,N
1545331795.4,286047002.5,N
1545331815.2,286046999.8,N
1545331835.1,286047002.5,N
1545331836.0,286047002.5,N
1545331855.8,286046999.7,N
1545331875.6,286047000.9,N
1545331895.5,286047000.9,N
1545331915.3,286047000.3,N
1545331935.2,286047001.0,N
1545331955.9,286047000.4,N
1545331975.7,286047000.3,N
1545331995.6,286047002.8,N
1545332015.4,286047000.1,N
1545332035.2,286047001.2,N
1545332055.1,286047000.6,N
1545332056.0,286047000.6,N
1545332075.8,286047000.0,N
1545332095.7,286047000.1,N
1545332115.5,286047000.0,N
1545332135.3,286046998.6,N
1545332155.2,286047001.1,N
1545332175.0,286047000.1,N
1545332175.9,286047000.1,N
1545332195.8,286047000.1,N
1545332215.6,286047002.7,N
1545332235.4,286047002.1,N
1545332255.3,286047002.5,N
1545332275.1,286047002.4,N
1545332295.9,286047001.3,N
1545332315.7,286047004.4,Y
1545332335.5,286047000.4,P
1545332355.4,286047000.0,N
1545332375.2,286047000.0,N
1545332395.0,286047000.6,N
1545332395.9,286047000.6,N
